Weather History for Gwinn, MI

Change the Weather History Date:

Wednesday, September 26, 2012

  Actual Average (KESC) Record (KESC)
Temperature  
Mean Temperature 42 °F -  
Max Temperature 51 °F 60 °F 73 °F (2000)
Min Temperature 32 °F 45 °F 33 °F (1957)
Degree Days  
Heating Degree Days 24    
Moisture  
Dew Point 35 °F    
Average Humidity 82    
Maximum Humidity 93    
Minimum Humidity 54    
Precipitation  
Precipitation 0.00 in - - ()
Sea Level Pressure  
Sea Level Pressure 30.05 in    
Wind  
Wind Speed 4 mph (NNW)    
Max Wind Speed 14 mph    
Max Gust Speed 18 mph    
Visibility 10 miles    
Events      
Averages and records for this station are not official NWS values.
T = Trace of Precipitation, MM = Missing Value Source: NWS Daily Summary

Daily Weather History Graph

Daily Weather History Graph

Search for Another Location

Airport:

Trip Planner

Search our weather history database for the weather conditions in past years. The results will help you decide how hot, cold, wet, or windy it might be!

Date:

Astronomy

Sep. 26, 2012 Rise Set
Actual Time 7:42 AM EDT 7:38 PM EDT
Civil Twilight 7:12 AM EDT 8:08 PM EDT
Nautical Twilight 6:37 AM EDT 8:43 PM EDT
Astronomical Twilight 6:01 AM EDT 9:18 PM EDT
Moon 5:45 PM EDT (9/26) 3:57 AM EDT (9/26)
Length of Visible Light 12h 55m
Length of Day
11h 56m
Waxing Gibbous, 88% of the Moon is Illuminated
Sep 26
Waxing Gibbous
Sep 29
Full
Oct 8
Last Quarter
Oct 15
New
Oct 21
First Quarter

Hourly Weather History & Observations

Time (EDT) Temp. Windchill Dew Point Humidity Pressure Visibility Wind Dir Wind Speed Gust Speed Precip Events Conditions
12:16 AM 43.0 °F 40.3 °F 39.6 °F 88% 29.94 in 10.0 mi WNW 4.6 mph - N/A   Mostly Cloudy
12:36 AM 41.4 °F 39.4 °F 38.5 °F 89% 29.94 in 10.0 mi WNW 3.5 mph - N/A   Scattered Clouds
12:56 AM 40.6 °F 37.5 °F 37.6 °F 89% 29.94 in 10.0 mi NW 4.6 mph - N/A   Clear
1:16 AM 40.8 °F 37.8 °F 37.8 °F 89% 29.94 in 10.0 mi NW 4.6 mph - N/A   Clear
1:36 AM 39.2 °F 37.0 °F 36.5 °F 90% 29.94 in 10.0 mi NW 3.5 mph - N/A   Clear
1:56 AM 37.4 °F - 34.9 °F 91% 29.94 in 10.0 mi Calm Calm - N/A   Clear
2:16 AM 37.4 °F - 34.7 °F 90% 29.95 in 10.0 mi Calm Calm - N/A   Clear
2:36 AM 35.6 °F 31.7 °F 32.9 °F 90% 29.95 in 10.0 mi WNW 4.6 mph - N/A   Clear
2:56 AM 35.4 °F 30.5 °F 33.1 °F 91% 29.94 in 10.0 mi WNW 5.8 mph - N/A   Clear
3:16 AM 36.0 °F - 33.3 °F 90% 29.95 in 10.0 mi Calm Calm - N/A   Clear
3:35 AM 37.4 °F - 34.9 °F 91% 29.96 in 10.0 mi Calm Calm - N/A   Clear
3:56 AM 36.5 °F 32.7 °F 33.4 °F 89% 29.96 in 10.0 mi SW 4.6 mph - N/A   Clear
4:16 AM 35.8 °F 33.0 °F 33.3 °F 91% 29.96 in 10.0 mi South 3.5 mph - N/A   Clear
4:35 AM 36.0 °F - 33.6 °F 91% 29.97 in 10.0 mi Calm Calm - N/A   Clear
4:56 AM 36.1 °F - 33.4 °F 90% 29.97 in 10.0 mi Calm Calm - N/A   Clear
5:16 AM 34.5 °F - 32.0 °F 90% 29.97 in 10.0 mi Calm Calm - N/A   Clear
5:36 AM 33.3 °F - 31.5 °F 93% 29.97 in 10.0 mi Calm Calm - N/A   Clear
5:56 AM 34.9 °F - 32.5 °F 91% 29.97 in 10.0 mi Calm Calm - N/A   Scattered Clouds
6:50 AM 33.8 °F - 32.0 °F 93% 29.99 in 10.0 mi Calm Calm - N/A   Scattered Clouds
7:50 AM 32.0 °F 28.7 °F 30.2 °F 93% 30.01 in 10.0 mi WNW 3.5 mph - N/A   Scattered Clouds
8:50 AM 35.6 °F - 33.8 °F 93% 30.03 in 10.0 mi Calm Calm - N/A   Clear
9:50 AM 46.4 °F 43.5 °F 39.2 °F 76% 30.04 in 10.0 mi NNW 5.8 mph - N/A   Clear
10:50 AM 51.8 °F - 35.6 °F 54% 30.06 in 10.0 mi North 11.5 mph - N/A   Clear
11:50 AM 51.8 °F - 35.6 °F 54% 30.08 in 10.0 mi NNW 11.5 mph 18.4 mph N/A   Scattered Clouds
12:50 PM 50.0 °F - 37.4 °F 62% 30.18 in 10.0 mi NNW 12.7 mph - N/A   Mostly Cloudy
1:50 PM 51.8 °F - 35.6 °F 54% 30.11 in 10.0 mi NNE 9.2 mph - N/A   Overcast
2:50 PM 50.0 °F - 33.8 °F 54% 30.10 in 10.0 mi NNE 13.8 mph - N/A   Overcast
3:50 PM 51.8 °F - 35.6 °F 54% 30.11 in 10.0 mi NNE 12.7 mph - N/A   Overcast
4:50 PM 51.8 °F - 35.6 °F 54% 30.12 in 10.0 mi NNE 12.7 mph - N/A   Mostly Cloudy
5:50 PM 51.8 °F - 35.6 °F 54% 30.13 in 10.0 mi NE 10.4 mph - N/A   Scattered Clouds
7:50 PM 48.2 °F - 37.4 °F 66% 30.17 in 10.0 mi NE 3.5 mph - N/A   Scattered Clouds
8:55 PM 41.0 °F 39.0 °F 35.6 °F 81% 30.19 in 10.0 mi North 3.5 mph - N/A   Clear
9:55 PM 41.0 °F - 37.4 °F 87% 30.21 in 10.0 mi Calm Calm - N/A   Clear
10:16 PM 37.6 °F - 33.8 °F 86% 30.21 in 10.0 mi Calm Calm - N/A   Clear
10:36 PM 38.1 °F - 34.9 °F 88% 30.21 in 10.0 mi Calm Calm - N/A   Clear
10:56 PM 37.8 °F - 34.9 °F 89% 30.22 in 10.0 mi Calm Calm - N/A   Clear
11:16 PM 36.5 °F - 33.4 °F 89% 30.22 in 10.0 mi Calm Calm - N/A   Clear
11:36 PM 35.4 °F - 32.2 °F 88% 30.22 in 10.0 mi Calm Calm - N/A   Clear
11:56 PM 35.4 °F - 32.9 °F 91% 30.23 in 10.0 mi Calm Calm - N/A   Clear